• în România
  • Lista ţărilor
  • Pe 7 zile
  • Temperatura apei
  • Hartă satelitară
  • Meteo pe hartă
  • Widget-uri
  • user-avatar
    Intrare

    Meteo pe oră la Ischgl

    Astăzi, 29 Martie, Miercuri

    Timp Temperatura Precipitaţii Vânt Presiune Umiditate
    00:00 -1°C° 0 mm 1 m/s 577 mmHg 97%
    01:00 -1°C° 0 mm 1 m/s 577 mmHg 97%
    02:00 -1°C° 0 mm 1 m/s 577 mmHg 97%
    03:00 -2°C° 0 mm 1 m/s 576 mmHg 97%
    04:00 -2°C° 0 mm 1 m/s 576 mmHg 98%
    05:00 -2°C° 0 mm 1 m/s 577 mmHg 97%
    06:00 -2°C° 0 mm 1 m/s 577 mmHg 97%
    07:00 -1°C° 0 mm 1 m/s 578 mmHg 96%
    08:00 +1°C° 0 mm 1 m/s 578 mmHg 93%
    09:00 +2°C° 0 mm 1 m/s 579 mmHg 91%
    10:00 +3°C° 0 mm 1 m/s 579 mmHg 88%
    11:00 +4°C° 0 mm 1 m/s 580 mmHg 86%
    12:00 +4°C° 0 mm 1 m/s 580 mmHg 84%
    13:00 +5°C° 0 mm 1 m/s 580 mmHg 82%
    14:00 +5°C° 0 mm 1 m/s 580 mmHg 81%
    15:00 +5°C° 0 mm 1 m/s 579 mmHg 81%
    16:00 +5°C° 0 mm 1 m/s 579 mmHg 81%
    17:00 +3°C° 0 mm 1 m/s 578 mmHg 86%
    18:00 0°C° 0 mm 1 m/s 577 mmHg 91%
    19:00 -2°C° 0 mm 1 m/s 576 mmHg 96%
    20:00 -2°C° 0 mm 1 m/s 576 mmHg 96%
    21:00 -3°C° 0 mm 1 m/s 576 mmHg 96%
    22:00 -3°C° 0 mm 1 m/s 576 mmHg 96%
    23:00 -3°C° 0 mm 1 m/s 576 mmHg 96%

    Mâine, 30 Martie, Joi

    Timp Temperatura Precipitaţii Vânt Presiune Umiditate
    00:00 -4°C° 0 mm 1 m/s 576 mmHg 95%
    01:00 -4°C° 0 mm 1 m/s 576 mmHg 95%
    02:00 -6°C° 0 mm 1 m/s 576 mmHg 93%
    03:00 -6°C° 0 mm 1 m/s 575 mmHg 92%
    04:00 -7°C° 0 mm 1 m/s 575 mmHg 90%
    05:00 -6°C° 0 mm 1 m/s 575 mmHg 86%
    06:00 -4°C° 0 mm 1 m/s 576 mmHg 82%
    07:00 -3°C° 0 mm 1 m/s 576 mmHg 78%
    08:00 0°C° 0 mm 1 m/s 578 mmHg 74%
    09:00 +3°C° 0 mm 1 m/s 579 mmHg 70%
    10:00 +4°C° 0 mm 0 m/s 581 mmHg 66%
    11:00 +6°C° 0 mm 1 m/s 581 mmHg 64%
    12:00 +7°C° 0 mm 1 m/s 581 mmHg 62%
    13:00 +8°C° 0 mm 1 m/s 581 mmHg 60%
    14:00 +8°C° 0 mm 1 m/s 581 mmHg 62%
    15:00 +8°C° 0 mm 1 m/s 581 mmHg 64%
    16:00 +7°C° 0 mm 1 m/s 580 mmHg 66%
    17:00 +5°C° 0 mm 1 m/s 579 mmHg 74%
    18:00 +2°C° 0 mm 1 m/s 577 mmHg 83%
    19:00 -1°C° 0 mm 1 m/s 576 mmHg 92%
    20:00 -1°C° 0 mm 1 m/s 576 mmHg 92%
    21:00 -1°C° 0 mm 1 m/s 577 mmHg 92%
    22:00 -2°C° 0 mm 2 m/s 577 mmHg 92%
    23:00 -2°C° 0 mm 2 m/s 577 mmHg 93%

    Poimâine, 31 Martie, Vineri

    Timp Temperatura Precipitaţii Vânt Presiune Umiditate
    00:00 -3°C° 0 mm 2 m/s 577 mmHg 93%
    01:00 -3°C° 0 mm 2 m/s 576 mmHg 93%
    02:00 -3°C° 0 mm 2 m/s 576 mmHg 93%
    03:00 -3°C° 0 mm 2 m/s 576 mmHg 94%
    04:00 -3°C° 0 mm 2 m/s 575 mmHg 94%
    05:00 -3°C° 0 mm 2 m/s 575 mmHg 92%
    06:00 -3°C° 0 mm 2 m/s 575 mmHg 91%
    07:00 -3°C° 0 mm 2 m/s 575 mmHg 90%
    08:00 -1°C° 0 mm 2 m/s 576 mmHg 82%
    09:00 +3°C° 0 mm 2 m/s 577 mmHg 74%
    10:00 +5°C° 0 mm 2 m/s 578 mmHg 66%
    11:00 +6°C° 0 mm 2 m/s 578 mmHg 63%
    12:00 +6°C° 0 mm 2 m/s 578 mmHg 59%
    13:00 +7°C° 0 mm 2 m/s 578 mmHg 56%
    14:00 +7°C° 0 mm 2 m/s 577 mmHg 58%
    15:00 +7°C° 0 mm 2 m/s 577 mmHg 60%
    16:00 +7°C° 0 mm 2 m/s 577 mmHg 62%
    17:00 +4°C° 0,1 mm 2 m/s 575 mmHg 72%
    18:00 +3°C° 0,1 mm 1 m/s 574 mmHg 82%
    19:00 0°C° 0,1 mm 1 m/s 573 mmHg 92%
    20:00 0°C° 0 mm 1 m/s 573 mmHg 92%
    21:00 -2°C° 0 mm 2 m/s 573 mmHg 93%
    22:00 -3°C° 0 mm 2 m/s 573 mmHg 93%
    23:00 -3°C° 0 mm 2 m/s 572 mmHg 93%

    1 Aprilie, Sâmbătă

    Timp Temperatura Precipitaţii Vânt Presiune Umiditate
    00:00 -3°C° 0 mm 2 m/s 572 mmHg 93%
    01:00 -4°C° 0 mm 2 m/s 572 mmHg 92%
    02:00 -4°C° 0 mm 2 m/s 571 mmHg 92%
    03:00 -5°C° 0 mm 2 m/s 571 mmHg 91%
    04:00 -5°C° 0 mm 2 m/s 570 mmHg 91%
    05:00 -4°C° 0 mm 2 m/s 571 mmHg 89%
    06:00 -4°C° 0 mm 2 m/s 571 mmHg 87%
    07:00 -3°C° 0 mm 2 m/s 571 mmHg 85%
    08:00 -2°C° 0 mm 2 m/s 572 mmHg 77%
    09:00 +1°C° 0 mm 2 m/s 573 mmHg 68%
    10:00 +3°C° 0 mm 2 m/s 574 mmHg 60%
    11:00 +4°C° 0 mm 2 m/s 574 mmHg 57%
    12:00 +5°C° 0 mm 2 m/s 574 mmHg 55%
    13:00 +5°C° 0 mm 2 m/s 574 mmHg 52%
    14:00 +5°C° 0,2 mm 2 m/s 574 mmHg 55%
    15:00 +5°C° 0,2 mm 2 m/s 573 mmHg 59%
    16:00 +4°C° 0,2 mm 2 m/s 573 mmHg 62%
    17:00 +2°C° 0,3 mm 2 m/s 572 mmHg 71%
    18:00 +1°C° 0,3 mm 1 m/s 571 mmHg 81%
    19:00 -1°C° 0,3 mm 1 m/s 571 mmHg 91%
    20:00 -1°C° 0,2 mm 1 m/s 571 mmHg 91%
    21:00 -2°C° 0,2 mm 1 m/s 571 mmHg 92%
    22:00 -2°C° 0,2 mm 1 m/s 571 mmHg 92%
    23:00 -2°C° 0,1 mm 1 m/s 571 mmHg 92%

    2 Aprilie, Duminică

    Timp Temperatura Precipitaţii Vânt Presiune Umiditate
    00:00 -2°C° 0,1 mm 1 m/s 571 mmHg 92%
    01:00 -2°C° 0,1 mm 1 m/s 572 mmHg 92%
    02:00 -3°C° 0 mm 1 m/s 571 mmHg 91%
    03:00 -3°C° 0 mm 1 m/s 571 mmHg 91%
    04:00 -3°C° 0 mm 1 m/s 571 mmHg 91%
    05:00 -2°C° 0 mm 1 m/s 572 mmHg 89%
    06:00 -2°C° 0 mm 1 m/s 572 mmHg 87%
    07:00 -1°C° 0 mm 1 m/s 573 mmHg 85%
    08:00 +1°C° 0 mm 1 m/s 574 mmHg 77%
    09:00 +3°C° 0 mm 1 m/s 575 mmHg 70%
    10:00 +4°C° 0 mm 1 m/s 576 mmHg 62%
    11:00 +5°C° 0,1 mm 1 m/s 577 mmHg 62%
    12:00 +5°C° 0,1 mm 1 m/s 577 mmHg 61%
    13:00 +6°C° 0,1 mm 1 m/s 577 mmHg 61%
    14:00 +5°C° 0,3 mm 1 m/s 576 mmHg 65%
    15:00 +5°C° 0,3 mm 1 m/s 576 mmHg 69%
    16:00 +4°C° 0,3 mm 1 m/s 576 mmHg 73%
    17:00 +3°C° 0,3 mm 1 m/s 575 mmHg 80%
    18:00 +1°C° 0,3 mm 1 m/s 575 mmHg 88%
    19:00 -1°C° 0,3 mm 1 m/s 574 mmHg 96%
    20:00 -2°C° 0,2 mm 0 m/s 575 mmHg 96%
    21:00 -2°C° 0,2 mm 0 m/s 575 mmHg 96%
    22:00 -2°C° 0,2 mm 0 m/s 575 mmHg 96%
    23:00 -3°C° 0,1 mm 0 m/s 575 mmHg 96%

    3 Aprilie, Luni

    Timp Temperatura Precipitaţii Vânt Presiune Umiditate
    00:00 -3°C° 0,1 mm 0 m/s 575 mmHg 96%
    01:00 -4°C° 0,1 mm 0 m/s 574 mmHg 96%
    02:00 -4°C° 0 mm 0 m/s 574 mmHg 96%
    03:00 -4°C° 0 mm 0 m/s 574 mmHg 96%
    04:00 -4°C° 0 mm 0 m/s 574 mmHg 96%
    05:00 -3°C° 0 mm 0 m/s 575 mmHg 94%
    06:00 -1°C° 0 mm 1 m/s 576 mmHg 92%
    07:00 -1°C° 0 mm 1 m/s 576 mmHg 91%
    08:00 +1°C° 0 mm 1 m/s 577 mmHg 85%
    09:00 +2°C° 0 mm 1 m/s 578 mmHg 80%
    10:00 +4°C° 0 mm 1 m/s 579 mmHg 74%
    11:00 +4°C° 0,1 mm 1 m/s 579 mmHg 73%
    12:00 +5°C° 0,1 mm 1 m/s 579 mmHg 71%
    13:00 +5°C° 0,1 mm 1 m/s 579 mmHg 70%
    14:00 +5°C° 0,3 mm 1 m/s 579 mmHg 72%
    15:00 +5°C° 0,3 mm 1 m/s 578 mmHg 75%
    16:00 +5°C° 0,3 mm 1 m/s 578 mmHg 77%
    17:00 +3°C° 0,2 mm 1 m/s 577 mmHg 83%
    18:00 +2°C° 0,2 mm 1 m/s 577 mmHg 89%
    19:00 0°C° 0,2 mm 1 m/s 576 mmHg 96%
    20:00 0°C° 0 mm 1 m/s 576 mmHg 96%
    21:00 0°C° 0 mm 1 m/s 576 mmHg 96%
    22:00 -1°C° 0 mm 1 m/s 576 mmHg 97%
    23:00 -1°C° 0 mm 1 m/s 576 mmHg 97%
    Arată mai mult